Current weather by "City, St" or "zip code"  
 
Advertise Here

Current Conditions: Two Harbors, MN

Overcast


21.0 F

Last Updated on Jan 17 2021, 8:55 pm CST
Humidity: 80%
Wind Speed: N 0.0 mph
Barometer 29.73 in
Dewpoint: 15.8 F
Visibility: 10.00 mi
Precip: --
Heat Index: NA
Wind Chill: NA
Current conditions at:

Two Harbors, MN (KTWM)

Lat: 47.05 Lon: 91.75

Local Radar Image active severe weather and emergency alerts image image weather storm and storm spotter reports image weather observation monitoring service image
Local
Radar
Active
Alerts
Storm Reports Obs
Monitoring

Sign-up For Email & Text Message Weather Alert Notification Services


Advertise Here

Observation History for Two Harbors, MN


Time Wind
(mph)
Vis
(mi)
Weather Precip (in) Temperature (F) Relative
Humidity
Wind
Chill
(F)
Heat
Index
(F)
Pressure
Air Dwpt altimeter
(in)
sea level
(mb)
Rmks
8:55 pm CST N 0.0 10.00 Overcast -- 21.0 15.8 80% NA NA 29.73 M
7:55 pm CST N 0.0 10.00 Overcast -- 19.0 14.0 79% NA NA 29.73 M
6:55 pm CST W 5.8 10.00 Overcast -- 21.0 15.8 80% 13 NA 29.73 M
5:55 pm CST W 4.6 10.00 Overcast -- 21.0 15.8 80% 15 NA 29.74 M
4:55 pm CST W 6.9 10.00 Overcast -- 23.0 15.8 74% 15 NA 29.74 M
3:55 pm CST W 6.9 10.00 Overcast -- 25.0 15.8 69% 17 NA 29.73 M
2:55 pm CST NW 4.6 10.00 Overcast -- 25.0 15.8 69% 19 NA 29.72 M
1:55 pm CST W 4.6 10.00 Overcast -- 27.0 17.6 69% 22 NA 29.71 M
12:55 pm CST N 0.0 10.00 Overcast -- 27.0 17.6 69% NA NA 29.72 M
11:55 am CST N 0.0 10.00 Overcast -- 25.0 17.6 74% NA NA 29.74 M
10:55 am CST NW 3.5 10.00 Overcast -- 25.0 17.6 74% NA NA 29.75 M
9:55 am CST NW 3.5 10.00 Overcast -- 25.0 15.8 69% NA NA 29.75 M
8:55 am CST N 0.0 10.00 Overcast -- 23.0 17.6 80% NA NA 29.74 M
7:55 am CST N 3.5 10.00 Overcast -- 23.0 17.6 80% NA NA 29.74 M
6:55 am CST NW 3.5 10.00 Overcast -- 23.0 17.6 80% NA NA 29.73 M
5:55 am CST NW 4.6 10.00 Overcast -- 23.0 15.8 74% 17 NA 29.72 M
4:55 am CST NW 5.8 10.00 Overcast -- 23.0 15.8 74% 16 NA 29.71 M
3:55 am CST W 3.5 10.00 Overcast -- 25.0 15.8 69% NA NA 29.71 M
2:55 am CST NW 3.5 10.00 Overcast -- 25.0 17.6 74% NA NA 29.72 M
1:55 am CST NW 4.6 10.00 Overcast -- 25.0 19.4 80% 19 NA 29.71 M
12:55 am CST N 0.0 10.00 Overcast -- 25.0 19.4 80% NA NA 29.71 M
11:55 pm CST NW 3.5 10.00 Overcast -- 25.0 19.4 80% NA NA 29.71 M
10:55 pm CST NW 3.5 10.00 Overcast -- 25.0 19.4 80% NA NA 29.71 M
9:55 pm CST N 0.0 10.00 Overcast -- 27.0 19.4 74% NA NA 29.70 M

Regional Weather Observation


Silver Bay, MN (KBFW)

Overcast
19.0 F

Eveleth-Virginia Municipal Airport, MN (KEVM)

Light Snow
18.0 F

Ely, Ely Municipal Airport, MN (KELO)

Light Snow
18.0 F

Chisholm-Hibbing Airport, MN (KHIB)

Overcast
17.0 F

Duluth International Airport, MN (KDLH)

Light Snow
50.0 F

Cook Municipal Airport, MN (KCQM)

Light Snow
18.0 F